Weather History for KCRG - November, 2012

Change the Weather History Date:

Thursday, November 1, 2012

  Actual Average Record
Temperature  
Mean Temperature 63 °F -  
Max Temperature 75 °F 75 °F 84 °F (1996)
Min Temperature 50 °F 56 °F 46 °F (2014)
Degree Days  
Heating Degree Days 2    
Growing Degree Days 13 (Base 50)    
Moisture  
Dew Point 45 °F    
Average Humidity 57    
Maximum Humidity 78    
Minimum Humidity 25    
Precipitation  
Precipitation 0.00 in - - ()
Sea Level Pressure  
Sea Level Pressure 29.96 in    
Wind  
Wind Speed 7 mph (West)    
Max Wind Speed 13 mph    
Max Gust Speed 17 mph    
Visibility 10 miles    
Events      
Averages and records for this station are not official NWS values.
T = Trace of Precipitation, MM = Missing Value Source: NWS Daily Summary

Daily Weather History Graph

Daily Weather History Graph

Search for Another Location

Airport or City:

Trip Planner

Search our weather history database for the weather conditions in past years. The results will help you decide how hot, cold, wet, or windy it might be!

Date:

Astronomy

Nov. 01, 2012 Rise Set
Actual Time 7:40 AM EDT 6:38 PM EDT
Civil Twilight 7:15 AM EDT 7:02 PM EDT
Nautical Twilight 6:47 AM EDT 7:31 PM EDT
Astronomical Twilight 6:19 AM EDT 7:59 PM EDT
Moon 8:42 PM EDT (11/1) 10:03 AM EDT (11/1)
Length of Visible Light 11h 46m
Length of Day
10h 57m
Waning Gibbous, 93% of the Moon is Illuminated
Nov 1
Waning Gibbous
Nov 6
Last Quarter
Nov 13
New
Nov 20
First Quarter
Nov 28
Full

Hourly Weather History & Observations

Time (EDT) Temp. Dew Point Humidity Pressure Visibility Wind Dir Wind Speed Gust Speed Precip Events Conditions
12:53 AM 61.0 °F 48.0 °F 62% 29.96 in 10.0 mi WSW 8.1 mph - N/A   Clear
1:53 AM 60.1 °F 48.9 °F 67% 29.96 in 10.0 mi WSW 8.1 mph - N/A   Clear
2:53 AM 60.1 °F 50.0 °F 69% 29.96 in 10.0 mi WSW 6.9 mph - N/A   Clear
3:53 AM 60.1 °F 51.1 °F 72% 29.96 in 10.0 mi WSW 5.8 mph - N/A   Clear
4:53 AM 59.0 °F 51.1 °F 75% 29.95 in 10.0 mi WSW 5.8 mph - N/A   Clear
5:53 AM 60.1 °F 52.0 °F 75% 29.96 in 10.0 mi West 6.9 mph - N/A   Clear
6:53 AM 59.0 °F 52.0 °F 78% 29.97 in 10.0 mi West 6.9 mph - N/A   Clear
7:53 AM 57.9 °F 51.1 °F 78% 29.98 in 10.0 mi West 5.8 mph - N/A   Clear
8:53 AM 60.1 °F 51.1 °F 72% 29.99 in 10.0 mi WNW 5.8 mph - N/A   Clear
9:53 AM 63.0 °F 46.0 °F 54% 30.00 in 10.0 mi NNW 10.4 mph - N/A   Partly Cloudy
10:53 AM 64.9 °F 43.0 °F 45% 30.01 in 10.0 mi NW 8.1 mph - N/A   Partly Cloudy
11:53 AM 68.0 °F 43.0 °F 40% 30.00 in 10.0 mi WSW 8.1 mph - N/A   Clear
12:53 PM 70.0 °F 42.1 °F 36% 29.97 in 10.0 mi West 9.2 mph 17.3 mph N/A   Clear
1:53 PM 72.0 °F 43.0 °F 35% 29.94 in 10.0 mi West 9.2 mph - N/A   Mostly Cloudy
2:53 PM 73.0 °F 39.9 °F 30% 29.91 in 10.0 mi WNW 12.7 mph 17.3 mph N/A   Scattered Clouds
3:53 PM 75.0 °F 37.0 °F 25% 29.90 in 10.0 mi WNW 10.4 mph - N/A   Clear
4:53 PM 73.9 °F 37.0 °F 26% 29.91 in 10.0 mi West 9.2 mph - N/A   Clear
5:53 PM 72.0 °F 36.0 °F 27% 29.91 in 10.0 mi WNW 8.1 mph - N/A   Clear
6:53 PM 69.1 °F 37.9 °F 32% 29.94 in 10.0 mi West 4.6 mph - N/A   Clear
7:53 PM 57.9 °F 45.0 °F 62% 29.96 in 10.0 mi Calm Calm - N/A   Clear
8:53 PM 55.0 °F 46.0 °F 72% 29.98 in 10.0 mi Calm Calm - N/A   Clear
9:53 PM 53.1 °F 44.1 °F 71% 29.99 in 10.0 mi Calm Calm - N/A   Clear
10:53 PM 51.1 °F 44.1 °F 77% 30.01 in 10.0 mi Calm Calm - N/A   Clear
11:53 PM 50.0 °F 43.0 °F 77% 30.01 in 10.0 mi Calm Calm - N/A   Clear